| Date | Time | Temp. (oF) | Dew Point (oF) | Rel. Hum. (%) | Press. (in.) | Wind Dir. (deg.) | Wind Speed (mph) | Hourly Rainfall (i n.) |
|
|---|---|---|---|---|---|---|---|---|---|
| 1 | miss | miss | miss | miss | miss | miss | miss | miss | |
| 2 | 12/23 | 17:29 | 37 | 18 | 46 | 30.23 | 260 | 9 | 0.00 |
| 3 | miss | miss | miss | miss | miss | miss | miss | miss | |
| 4 | 12/23 | 17:29 | 37 | 18 | 46 | 30.23 | 260 | 9 | 0.00 |
| 5 | miss | miss | miss | miss | miss | miss | miss | miss | |
| 6 | 12/23 | 17:29 | 37 | 18 | 46 | 30.23 | 260 | 9 | 0.00 |
| 7 | miss | miss | miss | miss | miss | miss | miss | miss | |
| 8 | 12/23 | 17:00 | 38 | 20 | 50 | 30.22 | 300 | 7 | 0.00 |
| 9 | 12/23 | 16:00 | 39 | 21 | 50 | 30.21 | 310 | 4 | 0.00 |
| 10 | 12/23 | 15:00 | 40 | 21 | 47 | 30.21 | 280 | 10 | 0.00 |
| 11 | 12/23 | 14:00 | 41 | 20 | 44 | 30.22 | 290 | 9 | 0.00 |
| 12 | 12/23 | 13:00 | 41 | 23 | 50 | 30.22 | 230 | 4 | 0.00 |
| 13 | 12/23 | 12:00 | 39 | 23 | 54 | 30.27 | 130 | 4 | 0.00 |
| 14 | 12/23 | 11:00 | 35 | 21 | 58 | 30.34 | 150 | 6 | 0.00 |
| 15 | 12/23 | 10:00 | 32 | 16 | 53 | 30.36 | 310 | 4 | 0.00 |
| 16 | 12/23 | 09:00 | 29 | 18 | 64 | 30.36 | 350 | 0 | 0.00 |
| 17 | 12/23 | 08:00 | 24 | 19 | 82 | 30.36 | 350 | 0 | 0.00 |
| 18 | 12/23 | 07:00 | 22 | 15 | 76 | 30.36 | 350 | 0 | 0.00 |
| 19 | 12/23 | 06:00 | 21 | 17 | 86 | 30.35 | 350 | 0 | 0.00 |
| 20 | 12/23 | 05:00 | 21 | 17 | 86 | 30.37 | 350 | 0 | 0.00 |
| 21 | 12/23 | 04:00 | 22 | 18 | 85 | 30.38 | 350 | 0 | 0.00 |
| 22 | 12/23 | 03:00 | 22 | 18 | 86 | 30.39 | 350 | 0 | 0.00 |
| 23 | 12/23 | 02:00 | 22 | 17 | 84 | 30.39 | 350 | 0 | 0.00 |
| 24 | 12/23 | 01:00 | 23 | 18 | 83 | 30.40 | 350 | 0 | 0.00 |